STARLINK-1710 (46330 NORAD) Tracking and Keplerian Element Data

This shows tracking and keplerian element data for the satellite.

Feedback or suggestion? Click here.




ElementValue
Catalog46330
NameSTARLINK-1710
Epoch Orbit178
Epoch Day268.91668981
Epoch Year2020
RAAN324.5186
Inclination53.0003
Eccentricity0.0001412
Argument of Perigee64.8859
Mean Anonmoly138.2807
Mean Motion15.62730596
Decay Rate0.00019758
L11 46330U 20062F 20268.91668981 .00019758 00000-0 22128-3 0 9990
L22 46330 53.0003 324.5186 0001412 64.8859 138.2807 15.62730596 1785

Live tracking and technical data element details for STARLINK-1710 (NORAD 46330). STARLINK-1710 can be tracked NOW for your location showing map with azimuth and elevation plus other details from your city location.

Track the satellite on the map from your city or location and see movement details for azimuth, elevation, latitude, longitude, range, height, and movement on the map or in text.







IsCatalogInMostPopularTable: catalog: 46330, numindb: 1
Update: records affected: 1



GetName: 46330 STARLINK-1710

Hit Count: updated at: Mon, 28 Sep 2020 15:01:45 GMT